CZ-6A R/B

Last updated on Wed Sep 17 2025 00:02:08 GMT+0000 (Coordinated Universal Time)

1 65549U 25199F 25259.57981849 .00000495 00000+0 86365-4 0 9998 2 65549 86.0174 166.6007 0069839 37.6339 322.9729 14.64053065 1446
UTC large
Height (km)
Speed (km/s)
/
Latitude / Longitude
Inclination (degrees)
Orbital Period (minutes)
Azimuth
Elevation
Range (km)
Doppler Factor

Next 0 passes for location: London (51.5072 / 0.1276)

Sorry there are no passes over London.